TGL25C LXGB-LFKC

Flight info

Callsign TGL25C
Flight time N/A
Altitude 36000
Route RIXUR N851 ISTER DCT LUNOR DCT NOLVI DCT GARPU DCT LIBLO
Aircraft A320/M-SDE3FGHIRWY/LB1

Departure

Time N/A
Airport Gibraltar Airport (LXGB)

Arrival

Time 2026-04-13 16:59
Airport Calvi Sainte Catherine Airport (LFKC)
Time Latitude Longitude Altitude Speed Heading
2026-04-13 15:46 38.91031 1.45322 35947 ft 436 kts 65°
2026-04-13 15:46 38.93239 1.52637 35947 ft 437 kts 66°
2026-04-13 15:47 38.95378 1.59946 35940 ft 438 kts 67°
2026-04-13 15:47 38.97515 1.67276 35932 ft 438 kts 67°
2026-04-13 15:48 38.99672 1.74611 35934 ft 439 kts 67°
2026-04-13 15:48 39.01831 1.81954 35932 ft 439 kts 67°
2026-04-13 15:49 39.03981 1.89316 35938 ft 440 kts 67°
2026-04-13 15:49 39.06127 1.96692 35935 ft 441 kts 67°
2026-04-13 15:50 39.08269 2.04091 35930 ft 442 kts 68°
2026-04-13 15:50 39.10420 2.11512 35927 ft 443 kts 68°
2026-04-13 15:51 39.12573 2.18944 35923 ft 443 kts 68°
2026-04-13 15:51 39.14697 2.26338 35926 ft 444 kts 68°
2026-04-13 15:52 39.16835 2.33792 35925 ft 443 kts 68°
2026-04-13 15:52 39.18965 2.41242 35920 ft 444 kts 68°
2026-04-13 15:53 39.21099 2.48700 35916 ft 443 kts 68°
2026-04-13 15:53 39.23227 2.56169 35916 ft 443 kts 68°
2026-04-13 15:54 39.25347 2.63642 35910 ft 444 kts 68°
2026-04-13 15:54 39.27465 2.71127 35911 ft 444 kts 69°
2026-04-13 15:55 39.29583 2.78621 35911 ft 444 kts 69°
2026-04-13 15:55 39.31699 2.86128 35915 ft 445 kts 69°
2026-04-13 15:56 39.33815 2.93663 35919 ft 447 kts 69°
2026-04-13 15:56 39.35925 3.01204 35910 ft 445 kts 69°
2026-04-13 15:57 39.38020 3.08722 35906 ft 445 kts 70°
2026-04-13 15:57 39.40119 3.16251 35906 ft 446 kts 70°
2026-04-13 15:58 39.42222 3.23799 35906 ft 446 kts 68°
2026-04-13 15:58 39.45129 3.30867 35905 ft 445 kts 58°
2026-04-13 15:59 39.48307 3.37743 35901 ft 445 kts 58°
2026-04-13 15:59 39.51474 3.44638 35901 ft 445 kts 58°
2026-04-13 16:00 39.54633 3.51538 35897 ft 445 kts 58°
2026-04-13 16:00 39.57791 3.58447 35897 ft 445 kts 59°
2026-04-13 16:01 39.60949 3.65359 35896 ft 446 kts 59°
2026-04-13 16:01 39.64078 3.72235 35894 ft 446 kts 59°
2026-04-13 16:02 39.67247 3.79212 35895 ft 446 kts 59°
2026-04-13 16:02 39.70394 3.86155 35879 ft 446 kts 59°
2026-04-13 16:03 39.73517 3.93066 35874 ft 447 kts 59°
2026-04-13 16:03 39.76662 4.00032 35869 ft 447 kts 59°
2026-04-13 16:04 39.79810 4.07002 35868 ft 447 kts 59°
2026-04-13 16:04 39.82944 4.13983 35868 ft 447 kts 59°
2026-04-13 16:05 39.86063 4.20976 35862 ft 447 kts 60°
2026-04-13 16:05 39.89203 4.27972 35858 ft 448 kts 59°
2026-04-13 16:06 39.92348 4.34983 35862 ft 448 kts 60°
2026-04-13 16:06 39.95491 4.42002 35865 ft 448 kts 59°
2026-04-13 16:07 39.98631 4.49031 35863 ft 448 kts 60°
2026-04-13 16:07 40.01754 4.56064 35867 ft 448 kts 60°
2026-04-13 16:08 40.04881 4.63112 35850 ft 449 kts 60°
2026-04-13 16:08 40.08014 4.70162 35848 ft 449 kts 60°
2026-04-13 16:09 40.11153 4.77224 35843 ft 450 kts 60°
2026-04-13 16:09 40.14282 4.84309 35843 ft 450 kts 60°
2026-04-13 16:10 40.17405 4.91400 35842 ft 450 kts 60°
2026-04-13 16:10 40.20526 4.98490 35840 ft 450 kts 61°
2026-04-13 16:11 40.23643 5.05583 35833 ft 450 kts 61°
2026-04-13 16:11 40.26756 5.12686 35830 ft 450 kts 61°
2026-04-13 16:12 40.29867 5.19795 35820 ft 450 kts 61°
2026-04-13 16:12 40.32967 5.26914 35821 ft 450 kts 61°
2026-04-13 16:13 40.36057 5.34042 35809 ft 450 kts 61°
2026-04-13 16:13 40.39333 5.41011 35817 ft 450 kts 52°
2026-04-13 16:14 40.43299 5.47350 35817 ft 449 kts 51°
2026-04-13 16:14 40.47265 5.53699 35803 ft 449 kts 51°
2026-04-13 16:15 40.51213 5.60053 35804 ft 449 kts 51°
2026-04-13 16:15 40.55157 5.66419 35797 ft 449 kts 51°
2026-04-13 16:16 40.59094 5.72800 35787 ft 449 kts 51°
2026-04-13 16:16 40.63037 5.79175 35782 ft 449 kts 51°
2026-04-13 16:17 40.66954 5.85502 35780 ft 449 kts 51°
2026-04-13 16:17 40.70894 5.91896 35780 ft 449 kts 51°
2026-04-13 16:18 40.74861 5.98255 35772 ft 449 kts 49°
2026-04-13 16:18 40.79095 6.04316 35781 ft 449 kts 46°
2026-04-13 16:19 40.83418 6.10257 35767 ft 449 kts 46°
2026-04-13 16:19 40.87685 6.16261 35762 ft 448 kts 47°
2026-04-13 16:20 40.91907 6.22326 35761 ft 448 kts 47°
2026-04-13 16:20 40.96119 6.28409 35751 ft 448 kts 47°
2026-04-13 16:21 41.00340 6.34489 35754 ft 448 kts 47°
2026-04-13 16:21 41.04570 6.40561 35748 ft 448 kts 47°
2026-04-13 16:22 41.08788 6.46646 35742 ft 448 kts 47°
2026-04-13 16:23 41.15105 6.55808 35717 ft 449 kts 47°
2026-04-13 16:23 41.19330 6.61927 35715 ft 450 kts 47°
2026-04-13 16:24 41.23559 6.68061 35715 ft 451 kts 47°
2026-04-13 16:24 41.27786 6.74232 35714 ft 451 kts 47°
2026-04-13 16:25 41.32014 6.80426 35619 ft 454 kts 47°
2026-04-13 16:25 41.34134 6.83532 35365 ft 451 kts 47°
2026-04-13 16:25 41.36243 6.86621 35118 ft 451 kts 46°
2026-04-13 16:25 41.38350 6.89703 34871 ft 448 kts 46°
2026-04-13 16:26 41.40444 6.92764 34627 ft 446 kts 46°
2026-04-13 16:26 41.42525 6.95808 34386 ft 443 kts 46°
2026-04-13 16:26 41.44599 6.98849 34147 ft 442 kts 46°
2026-04-13 16:26 41.46658 7.01877 33899 ft 439 kts 46°
2026-04-13 16:27 41.48701 7.04894 33656 ft 438 kts 46°
2026-04-13 16:27 41.50731 7.07899 33384 ft 435 kts 46°
2026-04-13 16:27 41.52757 7.10892 33098 ft 434 kts 47°
2026-04-13 16:27 41.54768 7.13861 32819 ft 430 kts 46°
2026-04-13 16:28 41.56096 7.15822 32644 ft 429 kts 47°
2026-04-13 16:28 41.58086 7.18765 32373 ft 425 kts 46°
2026-04-13 16:28 41.60057 7.21692 32108 ft 424 kts 48°
2026-04-13 16:28 41.61822 7.24828 31848 ft 421 kts 57°
2026-04-13 16:29 41.63268 7.28234 31581 ft 420 kts 60°
2026-04-13 16:29 41.64664 7.31655 31312 ft 417 kts 61°
2026-04-13 16:29 41.66054 7.35059 31061 ft 416 kts 61°
2026-04-13 16:29 41.67442 7.38449 30806 ft 414 kts 60°
2026-04-13 16:30 41.68822 7.41818 30551 ft 412 kts 60°
2026-04-13 16:30 41.70202 7.45182 30305 ft 411 kts 61°
2026-04-13 16:30 41.71569 7.48525 30060 ft 409 kts 61°
2026-04-13 16:30 41.72930 7.51862 29817 ft 408 kts 61°
2026-04-13 16:31 41.74281 7.55177 29543 ft 405 kts 61°
2026-04-13 16:31 41.75629 7.58491 29259 ft 405 kts 60°
2026-04-13 16:31 41.76952 7.61748 28951 ft 401 kts 60°
2026-04-13 16:31 41.78281 7.65023 28679 ft 400 kts 60°
2026-04-13 16:32 41.79605 7.68286 28398 ft 397 kts 59°
2026-04-13 16:32 41.80918 7.71528 28128 ft 396 kts 60°
2026-04-13 16:32 41.82228 7.74767 27842 ft 393 kts 60°
2026-04-13 16:32 41.83526 7.77983 27572 ft 393 kts 60°
2026-04-13 16:33 41.84823 7.81202 27306 ft 391 kts 60°
2026-04-13 16:33 41.86111 7.84400 27039 ft 389 kts 60°
2026-04-13 16:33 41.87398 7.87590 26774 ft 388 kts 59°
2026-04-13 16:33 41.88677 7.90763 26498 ft 386 kts 60°
2026-04-13 16:34 41.89950 7.93932 26267 ft 386 kts 60°
2026-04-13 16:34 41.91217 7.97087 26008 ft 382 kts 61°
2026-04-13 16:34 41.92477 8.00231 25760 ft 382 kts 59°
2026-04-13 16:34 41.93735 8.03370 25511 ft 381 kts 60°
2026-04-13 16:35 41.94986 8.06499 25256 ft 380 kts 60°
2026-04-13 16:35 41.96234 8.09621 25011 ft 379 kts 60°
2026-04-13 16:35 41.97478 8.12732 24770 ft 377 kts 60°
2026-04-13 16:35 41.98719 8.15841 24526 ft 377 kts 60°
2026-04-13 16:36 41.99954 8.18939 24288 ft 375 kts 59°
2026-04-13 16:36 42.01182 8.22029 24042 ft 375 kts 59°
2026-04-13 16:36 42.02406 8.25113 23808 ft 373 kts 60°
2026-04-13 16:36 42.03623 8.28185 23574 ft 373 kts 60°
2026-04-13 16:37 42.04841 8.31260 23342 ft 372 kts 60°
2026-04-13 16:37 42.06054 8.34322 23084 ft 370 kts 60°
2026-04-13 16:37 42.07262 8.37368 22826 ft 368 kts 61°
2026-04-13 16:37 42.08462 8.40400 22544 ft 366 kts 61°
2026-04-13 16:38 42.09652 8.43417 22274 ft 364 kts 61°
2026-04-13 16:38 42.10832 8.46410 22011 ft 361 kts 61°
2026-04-13 16:38 42.12006 8.49381 21743 ft 358 kts 60°
2026-04-13 16:38 42.13175 8.52342 21479 ft 357 kts 60°
2026-04-13 16:39 42.14335 8.55286 21206 ft 355 kts 61°
2026-04-13 16:39 42.15490 8.58224 20958 ft 354 kts 61°
2026-04-13 16:39 42.16642 8.61145 20695 ft 351 kts 61°
2026-04-13 16:39 42.17786 8.64053 20447 ft 350 kts 60°
2026-04-13 16:40 42.18925 8.66953 20195 ft 349 kts 61°
2026-04-13 16:40 42.20053 8.69840 19945 ft 347 kts 61°
2026-04-13 16:40 42.21172 8.72715 19700 ft 346 kts 62°
2026-04-13 16:40 42.22286 8.75581 19455 ft 345 kts 61°
2026-04-13 16:41 42.23502 8.78348 19210 ft 341 kts 50°
2026-04-13 16:41 42.25172 8.80580 18968 ft 337 kts 34°
2026-04-13 16:41 42.27209 8.82090 18728 ft 334 kts 19°
2026-04-13 16:41 42.29452 8.82789 18492 ft 330 kts
2026-04-13 16:42 42.31745 8.82836 18253 ft 329 kts 359°
2026-04-13 16:42 42.34030 8.82830 18019 ft 328 kts 359°
2026-04-13 16:42 42.36299 8.82826 17628 ft 326 kts 360°
2026-04-13 16:42 42.38566 8.82824 17160 ft 326 kts 360°
2026-04-13 16:43 42.40832 8.82822 16697 ft 326 kts 360°
2026-04-13 16:43 42.43119 8.82821 15951 ft 335 kts
2026-04-13 16:43 42.45453 8.82954 15194 ft 333 kts 10°
2026-04-13 16:43 42.47636 8.83899 14479 ft 328 kts 23°
2026-04-13 16:44 42.49719 8.85117 13866 ft 321 kts 24°
2026-04-13 16:44 42.51707 8.86294 13789 ft 305 kts 24°
2026-04-13 16:44 42.53617 8.87426 13726 ft 295 kts 24°
2026-04-13 16:44 42.55461 8.88518 13664 ft 284 kts 24°
2026-04-13 16:45 42.57242 8.89570 13603 ft 277 kts 24°
2026-04-13 16:45 42.59014 8.90615 13538 ft 278 kts 24°
2026-04-13 16:45 42.60791 8.91665 13311 ft 279 kts 24°
2026-04-13 16:45 42.62567 8.92715 12976 ft 278 kts 24°
2026-04-13 16:46 42.64346 8.93768 12644 ft 279 kts 24°
2026-04-13 16:46 42.66101 8.94807 12293 ft 279 kts 24°
2026-04-13 16:46 42.67902 8.95870 11949 ft 279 kts 24°
2026-04-13 16:46 42.69679 8.96922 11607 ft 279 kts 24°
2026-04-13 16:47 42.71468 8.97936 11249 ft 279 kts 19°
2026-04-13 16:47 42.73370 8.98475 10884 ft 281 kts
2026-04-13 16:47 42.75304 8.98507 10503 ft 282 kts
2026-04-13 16:47 42.77269 8.98493 10128 ft 283 kts
2026-04-13 16:48 42.79244 8.98483 9723 ft 284 kts
2026-04-13 16:48 42.81196 8.98470 9587 ft 275 kts
2026-04-13 16:48 42.83072 8.98458 9479 ft 264 kts
2026-04-13 16:48 42.84873 8.98449 9422 ft 253 kts
2026-04-13 16:49 42.86579 8.98210 9363 ft 245 kts 345°
2026-04-13 16:49 42.88038 8.97074 9298 ft 241 kts 320°
2026-04-13 16:49 42.88983 8.95218 9119 ft 242 kts 293°
2026-04-13 16:49 42.89252 8.92948 8785 ft 247 kts 270°
2026-04-13 16:50 42.89202 8.90595 8424 ft 250 kts 270°
2026-04-13 16:50 42.89151 8.88261 8209 ft 240 kts 270°
2026-04-13 16:50 42.89103 8.86003 7779 ft 237 kts 269°
2026-04-13 16:50 42.89058 8.83789 7383 ft 229 kts 269°
2026-04-13 16:51 42.88775 8.81704 7050 ft 220 kts 244°
2026-04-13 16:51 42.87869 8.80112 6728 ft 210 kts 216°
2026-04-13 16:51 42.86599 8.79288 6440 ft 198 kts 187°
2026-04-13 16:51 42.85260 8.79197 6187 ft 189 kts 175°
2026-04-13 16:52 42.83963 8.79200 5903 ft 184 kts 175°
2026-04-13 16:52 42.82693 8.79198 5646 ft 181 kts 177°
2026-04-13 16:52 42.81444 8.79195 5381 ft 178 kts 173°
2026-04-13 16:52 42.80222 8.79194 5136 ft 174 kts 174°
2026-04-13 16:53 42.79020 8.79195 4893 ft 172 kts 175°
2026-04-13 16:53 42.77832 8.79196 4652 ft 169 kts 173°
2026-04-13 16:53 42.76692 8.79194 4441 ft 157 kts 172°
2026-04-13 16:53 42.75637 8.79192 4224 ft 148 kts 171°
2026-04-13 16:54 42.74611 8.79197 4022 ft 147 kts 171°
2026-04-13 16:54 42.73589 8.79203 3834 ft 146 kts 171°
2026-04-13 16:54 42.72573 8.79209 3631 ft 146 kts 170°
2026-04-13 16:54 42.71555 8.79216 3446 ft 146 kts 171°
2026-04-13 16:55 42.70538 8.79219 3254 ft 146 kts 171°
2026-04-13 16:55 42.69524 8.79224 3060 ft 145 kts 171°
2026-04-13 16:55 42.68522 8.79229 2867 ft 144 kts 171°
2026-04-13 16:55 42.67515 8.79238 2672 ft 145 kts 176°
2026-04-13 16:56 42.66489 8.79245 2471 ft 149 kts 176°
2026-04-13 16:56 42.65443 8.79251 2266 ft 152 kts 175°
2026-04-13 16:56 42.64380 8.79256 2064 ft 153 kts 178°
2026-04-13 16:56 42.63309 8.79261 1863 ft 154 kts 178°
2026-04-13 16:57 42.62237 8.79262 1661 ft 154 kts 178°
2026-04-13 16:57 42.61162 8.79264 1465 ft 153 kts 177°
2026-04-13 16:57 42.60110 8.79263 1268 ft 150 kts 178°
2026-04-13 16:57 42.59062 8.79277 1034 ft 150 kts 177°
2026-04-13 16:58 42.58022 8.79318 744 ft 149 kts 176°
2026-04-13 16:58 42.56997 8.79366 579 ft 145 kts 179°
2026-04-13 16:58 42.55995 8.79318 406 ft 147 kts 180°
2026-04-13 16:58 42.54958 8.79330 194 ft 148 kts 182°
2026-04-13 16:59 42.53930 8.79298 109 ft 147 kts 180°
2026-04-13 16:59 42.53008 8.79299 161 ft 111 kts 179°
2026-04-13 16:59 42.52407 8.79299 190 ft 60 kts 179°
2026-04-13 16:59 42.52099 8.79287 206 ft 20 kts 191°
2026-04-13 17:00 42.52044 8.79234 214 ft 5 kts 251°
2026-04-13 17:00 42.52047 8.79196 207 ft 3 kts 293°
2026-04-13 17:00 42.52062 8.79174 207 ft 7 kts 322°
2026-04-13 17:00 42.52115 8.79165 205 ft 9 kts
2026-04-13 17:01 42.52195 8.79199 206 ft 15 kts
2026-04-13 17:01 42.52295 8.79189 205 ft 8 kts 352°
2026-04-13 17:01 42.52361 8.79170 200 ft 11 kts 347°
2026-04-13 17:01 42.52445 8.79161 195 ft 12 kts 359°
2026-04-13 17:02 42.52505 8.79111 202 ft 7 kts 300°
2026-04-13 17:02 42.52515 8.79086 198 ft 0 kts 299°